This is the latest recevied weather packets stored in our database for station/object p43g-13. If no packets are shown the sender has not sent any weather packets the latest 10 day(s).
| Time | Temp. | Humidity | Pressure | Rain* | Wind** | Luminosity | Snow |
|---|---|---|---|---|---|---|---|
| 1787876915 | 28.89° C | 82% | 1010.2 hPa | 0 mm | - | 0 W/m² | - |
| 1787876615 | 28.89° C | 82% | 1010.2 hPa | 0 mm | - | 0 W/m² | - |
| 1787876314 | 28.89° C | 82% | 1010.1 hPa | 0 mm | - | 0 W/m² | - |
| 1787876014 | 28.89° C | 82% | 1010.1 hPa | 0 mm | - | 0 W/m² | - |
| 1787875715 | 28.89° C | 81% | 1010.1 hPa | 0 mm | - | 0 W/m² | - |
| 1787875414 | 28.89° C | 81% | 1010.1 hPa | 0 mm | - | 0 W/m² | - |
| 1787875114 | 28.89° C | 81% | 1010.1 hPa | 0 mm | - | 0 W/m² | - |
| 1787874815 | 28.89° C | 83% | 1009.9 hPa | 0 mm | - | 0 W/m² | - |
| 1787874515 | 28.89° C | 83% | 1009.8 hPa | 0 mm | - | 0 W/m² | - |
| 1787874215 | 28.89° C | 83% | 1009.8 hPa | 0 mm | - | 0 W/m² | - |
| 1787873915 | 28.89° C | 83% | 1009.9 hPa | 0 mm | - | 0 W/m² | - |
| 1787873314 | 28.89° C | 82% | 1009.7 hPa | 0 mm | - | 0 W/m² | - |
| 1787873015 | 28.89° C | 82% | 1009.9 hPa | 0 mm | - | 0 W/m² | - |
| 1787872714 | 28.89° C | 82% | 1009.7 hPa | 0 mm | - | 0 W/m² | - |
| 1787872414 | 28.89° C | 83% | 1009.4 hPa | 0 mm | - | 0 W/m² | - |
| 1787872115 | 29.44° C | 83% | 1009.5 hPa | 0 mm | - | 0 W/m² | - |
| 1787871814 | 29.44° C | 83% | 1009.6 hPa | 0 mm | - | 0 W/m² | - |
| 1787871515 | 29.44° C | 83% | 1009.7 hPa | 0 mm | - | 2 W/m² | - |
| 1787871215 | 29.44° C | 82% | 1009.5 hPa | 0 mm | - | 3 W/m² | - |
| 1787870914 | 29.44° C | 82% | 1009.4 hPa | 0 mm | - | 6 W/m² | - |
| 1787870615 | 29.44° C | 82% | 1009.5 hPa | 0 mm | - | 11 W/m² | - |
| 1787870314 | 29.44° C | 82% | 1009.5 hPa | 0 mm | - | 16 W/m² | - |
| 1787870015 | 29.44° C | 82% | 1009.4 hPa | 0 mm | - | 23 W/m² | - |
| 1787869715 | 29.44° C | 82% | 1009.1 hPa | 0 mm | - | 27 W/m² | - |
| 1787869414 | 29.44° C | 81% | 1009.6 hPa | 0 mm | - | 31 W/m² | - |
* Rain latest hour (hover to see other rain measurements)
** Current wind speed in m/s (hover to see current wind gust speed)